AirNav   Textron
 
 1027 users online  

00IN St Mary Medical Center Heliport
Hobart, Indiana, USA

GOING TO HOBART?


FAA INFORMATION EFFECTIVE 14 SEPTEMBER 2017

Location

FAA Identifier: 00IN
Lat/Long: 41-30-41.0000N / 087-15-38.0000W
41-30.683333N / 087-15.633333W
41.5113889 / -87.2605556
(estimated)
Elevation: 634 ft. / 193 m (estimated)
Variation: 02W (1995)
From city: 2 miles SW of HOBART, IN
Time zone: UTC -5 (UTC -6 during Standard Time)
Zip code: 46342

Heliport Operations

Heliport use: Private use. Permission required prior to landing
Activation date: 03/2000
Control tower: no
ARTCC: CHICAGO CENTER
FSS: TERRE HAUTE FLIGHT SERVICE STATION
Attendance: UNATNDD
Wind indicator: lighted
Segmented circle: no
Lights: FOR PERIMETER LGTS CALL 219-942-0551.

Heliport Communications

WX AWOS-3 at GYY (9 nm NW): 134.575 (219-944-0010)
WX ASOS at VPZ (12 nm E): 125.875 (219-531-1770)
WX AWOS-3 at IGQ (12 nm W): 119.275 (708-895-9526)

Nearby radio navigation aids

VOR radial/distance  VOR name  Freq  Var
CGTr088/14.0CHICAGO HEIGHTS VORTAC114.2002E
EONr057/27.9PEOTONE VORTAC113.2002E
OXIr292/29.8KNOX VOR/DME115.6000E
IKKr045/37.3KANKAKEE VOR/DME111.6000E

 
NDB name  Hdg/Dist  Freq  Var  ID
LA PORTE275/22.035603WIUL .. ..- .-..

Heliport Services

Runway Information

Helipad H1

Dimensions: 40 x 40 ft. / 12 x 12 m
Surface: mats
Runway edge lights: PERI
Operational restrictions: ROOFTOP HELIPAD.
Latitude: 41-30.683333N
Longitude: 087-15.633333W
Elevation: 634.0 ft.
Traffic pattern: leftleft

Heliport Ownership and Management from official FAA records

Ownership: Privately-owned
Owner: ST MARYS MEDICAL CENTER
1500 S LAKE PARK AVE
HOBART, IN 46342
Phone 219-942-0551
Manager: KEN VANDERHYE
ST MARY MEDICAL CENTER, 1500 S LAKE PARK AVE
HOBART, IN 46342
Phone 219-942-0551

Instrument Procedures

There are no published instrument procedures at 00IN.

Some nearby airports with instrument procedures:

3HO - Hobart Sky Ranch Airport (3 nm N)
05C - Griffith-Merrillville Airport (6 nm W)
KGYY - Gary/Chicago International Airport (9 nm NW)
KVPZ - Porter County Regional Airport (12 nm E)
KIGQ - Lansing Municipal Airport (12 nm W)
 
Loc | Ops | Rwys | IFR | FBO | Links
Com | Nav | Svcs | Stats | Notes


 
Area around 00IN (St Mary Medical Center Heliport)
 
Road maps at: MapQuest Bing Google
 
Aerial photo
No photo
 
Sectional chart

 
Airport distance calculator
Flying to St Mary Medical Center Heliport? Find the distance to fly.

From to 00IN

Sunrise and sunset
Times for 25-Sep-2017
 Local
(UTC-5)
 Zulu
(UTC)
Morning civil twilight06:1311:13
Sunrise06:4111:41
Sunset18:4123:41
Evening civil twilight19:0900:09

Current date and time
Zulu (UTC)  26-Sep-2017 00:26:08
Local (UTC-5)  25-Sep-2017 19:26:08
 
METAR
KGYY 
9nm NW 
252345Z 14003KT 10SM FEW250 24/16 A2994
KVPZ 
12nm E 
252356Z AUTO 12003KT 10SM CLR 27/13 A2996 RMK AO2 SLP140 T02670128 10328 20267 55000 TSNO
KIGQ 
12nm W 
252355Z AUTO 00000KT 10SM CLR 27/15 A2994 RMK AO2 T02650153 10322 20265
TAF
KGYY 
9nm NW 
251738Z 2518/2618 15007KT P6SM FEW060 FEW200 FM252100 07008KT P6SM FEW050 FEW200 FM260100 14003KT P6SM FEW150 FM261400 21007KT P6SM BKN120
NOTAMs
Click for the latest NOTAMs
NOTAMs are issued by the DoD/FAA and will open in a separate window not controlled by AirNav.

 

 
 

Would you like to see your business listed on this page?

 If your business provides an interesting product or service to pilots, flight crews, aircraft, or users of the St Mary Medical Center Heliport, you should consider listing it here.  To start the listing process, click on the button below
 
Add a business
 

Other Pages about St Mary Medical Center Heliport

Update a link
 
Copyright © AirNav, LLC. All rights reserved. Privacy Policy  Contact